• In Spain
  • List of Countries
  • For 7 days
  • Water Temperature
  • Satellite Maps
  • Weather Map
  • Weather Widgets
  • user-avatar
    Login

    Hourly Weather Malaya Lapushka

    Today, 14 August, Tuesday

    Time Temperature Precipitation Wind Pressure Humidity
    00:00 +12°C° 0 mm 2 mps 739 mmHg 97%
    01:00 +12°C° 0 mm 2 mps 739 mmHg 97%
    02:00 +10°C° 0 mm 2 mps 739 mmHg 98%
    03:00 +10°C° 0 mm 2 mps 740 mmHg 98%
    04:00 +10°C° 0 mm 2 mps 740 mmHg 98%
    05:00 +11°C° 0 mm 1 mps 740 mmHg 97%
    06:00 +13°C° 0 mm 1 mps 741 mmHg 90%
    07:00 +15°C° 0 mm 2 mps 741 mmHg 83%
    08:00 +19°C° 0 mm 1 mps 741 mmHg 74%
    09:00 +19°C° 0 mm 2 mps 741 mmHg 66%
    10:00 +20°C° 0 mm 2 mps 741 mmHg 58%
    11:00 +23°C° 0 mm 2 mps 741 mmHg 51%
    12:00 +23°C° 0 mm 2 mps 741 mmHg 48%
    13:00 +24°C° 0 mm 2 mps 741 mmHg 46%
    14:00 +24°C° 0 mm 2 mps 741 mmHg 43%
    15:00 +24°C° 0 mm 2 mps 741 mmHg 47%
    16:00 +24°C° 0 mm 1 mps 740 mmHg 50%
    17:00 +24°C° 0 mm 1 mps 740 mmHg 53%
    18:00 +21°C° 0 mm 1 mps 740 mmHg 60%
    19:00 +19°C° 0 mm 1 mps 740 mmHg 67%
    20:00 +15°C° 0 mm 0 mps 740 mmHg 74%
    21:00 +15°C° 0 mm 1 mps 740 mmHg 77%
    22:00 +15°C° 0 mm 1 mps 740 mmHg 80%
    23:00 +15°C° 0 mm 1 mps 740 mmHg 82%

    Tomorrow, 15 August, Wednesday

    Time Temperature Precipitation Wind Pressure Humidity
    00:00 +15°C° 0 mm 1 mps 740 mmHg 86%
    01:00 +15°C° 0 mm 2 mps 739 mmHg 89%
    02:00 +15°C° 0 mm 2 mps 739 mmHg 92%
    03:00 +15°C° 0.3 mm 2 mps 738 mmHg 93%
    04:00 +15°C° 0.3 mm 2 mps 738 mmHg 94%
    05:00 +16°C° 0.3 mm 3 mps 737 mmHg 95%
    06:00 +17°C° 0.3 mm 3 mps 737 mmHg 94%
    07:00 +18°C° 0.3 mm 3 mps 737 mmHg 92%
    08:00 +19°C° 0.3 mm 4 mps 736 mmHg 90%
    09:00 +20°C° 0.6 mm 4 mps 736 mmHg 89%
    10:00 +21°C° 0.6 mm 4 mps 736 mmHg 87%
    11:00 +22°C° 0.6 mm 4 mps 736 mmHg 86%
    12:00 +22°C° 0.8 mm 4 mps 736 mmHg 87%
    13:00 +22°C° 0.8 mm 4 mps 736 mmHg 87%
    14:00 +22°C° 0.8 mm 4 mps 736 mmHg 88%
    15:00 +22°C° 0.2 mm 4 mps 736 mmHg 85%
    16:00 +22°C° 0.2 mm 4 mps 736 mmHg 82%
    17:00 +21°C° 0.2 mm 3 mps 736 mmHg 79%
    18:00 +20°C° 0 mm 3 mps 737 mmHg 84%
    19:00 +18°C° 0 mm 2 mps 737 mmHg 89%
    20:00 +17°C° 0 mm 2 mps 737 mmHg 95%
    21:00 +16°C° 0 mm 2 mps 737 mmHg 95%
    22:00 +16°C° 0 mm 2 mps 738 mmHg 96%
    23:00 +15°C° 0 mm 2 mps 738 mmHg 97%

    Day after tomorrow, 16 August, Thursday

    Time Temperature Precipitation Wind Pressure Humidity
    00:00 +15°C° 0 mm 1 mps 738 mmHg 97%
    01:00 +15°C° 0 mm 1 mps 738 mmHg 98%
    02:00 +15°C° 0 mm 1 mps 739 mmHg 98%
    03:00 +15°C° 0 mm 1 mps 739 mmHg 98%
    04:00 +15°C° 0 mm 1 mps 739 mmHg 97%
    05:00 +15°C° 0 mm 1 mps 740 mmHg 97%
    06:00 +16°C° 0 mm 1 mps 740 mmHg 95%
    07:00 +16°C° 0 mm 2 mps 740 mmHg 93%
    08:00 +16°C° 0 mm 2 mps 741 mmHg 91%
    09:00 +17°C° 0 mm 2 mps 741 mmHg 88%
    10:00 +17°C° 0 mm 2 mps 742 mmHg 85%
    11:00 +18°C° 0 mm 2 mps 742 mmHg 82%
    12:00 +18°C° 0 mm 2 mps 742 mmHg 79%
    13:00 +19°C° 0 mm 2 mps 743 mmHg 75%
    14:00 +19°C° 0 mm 2 mps 743 mmHg 72%
    15:00 +20°C° 0 mm 2 mps 743 mmHg 70%
    16:00 +20°C° 0 mm 2 mps 743 mmHg 68%
    17:00 +20°C° 0 mm 2 mps 743 mmHg 66%
    18:00 +19°C° 0 mm 2 mps 744 mmHg 73%
    19:00 +17°C° 0 mm 2 mps 744 mmHg 81%
    20:00 +15°C° 0 mm 1 mps 744 mmHg 89%
    21:00 +14°C° 0 mm 1 mps 745 mmHg 90%
    22:00 +14°C° 0 mm 1 mps 745 mmHg 91%
    23:00 +13°C° 0 mm 1 mps 745 mmHg 93%

    17 August, Friday

    Time Temperature Precipitation Wind Pressure Humidity
    00:00 +13°C° 0 mm 1 mps 745 mmHg 92%
    01:00 +12°C° 0 mm 1 mps 746 mmHg 92%
    02:00 +12°C° 0 mm 1 mps 746 mmHg 92%
    03:00 +12°C° 0 mm 1 mps 746 mmHg 92%
    04:00 +11°C° 0 mm 1 mps 746 mmHg 92%
    05:00 +11°C° 0 mm 1 mps 746 mmHg 92%
    06:00 +14°C° 0 mm 1 mps 747 mmHg 84%
    07:00 +16°C° 0 mm 1 mps 747 mmHg 76%
    08:00 +19°C° 0 mm 1 mps 747 mmHg 67%
    09:00 +21°C° 0 mm 1 mps 747 mmHg 61%
    10:00 +21°C° 0 mm 2 mps 747 mmHg 55%
    11:00 +24°C° 0 mm 2 mps 747 mmHg 49%
    12:00 +24°C° 0 mm 2 mps 747 mmHg 48%
    13:00 +25°C° 0 mm 2 mps 747 mmHg 46%
    14:00 +25°C° 0 mm 2 mps 746 mmHg 44%
    15:00 +25°C° 0 mm 2 mps 746 mmHg 48%
    16:00 +24°C° 0 mm 1 mps 746 mmHg 53%
    17:00 +24°C° 0 mm 1 mps 746 mmHg 57%
    18:00 +22°C° 0 mm 1 mps 746 mmHg 65%
    19:00 +19°C° 0 mm 1 mps 746 mmHg 72%
    20:00 +16°C° 0 mm 1 mps 746 mmHg 80%
    21:00 +15°C° 0 mm 1 mps 746 mmHg 83%
    22:00 +15°C° 0 mm 1 mps 746 mmHg 85%
    23:00 +14°C° 0 mm 1 mps 746 mmHg 88%

    18 August, Saturday

    Time Temperature Precipitation Wind Pressure Humidity
    00:00 +14°C° 0 mm 1 mps 746 mmHg 89%
    01:00 +13°C° 0 mm 1 mps 746 mmHg 90%
    02:00 +13°C° 0 mm 1 mps 746 mmHg 91%
    03:00 +13°C° 0 mm 1 mps 746 mmHg 92%
    04:00 +12°C° 0 mm 2 mps 746 mmHg 93%
    05:00 +12°C° 0 mm 2 mps 746 mmHg 94%
    06:00 +14°C° 0 mm 2 mps 746 mmHg 85%
    07:00 +17°C° 0 mm 2 mps 746 mmHg 77%
    08:00 +19°C° 0 mm 2 mps 746 mmHg 69%
    09:00 +20°C° 0 mm 2 mps 746 mmHg 63%
    10:00 +22°C° 0 mm 3 mps 746 mmHg 57%
    11:00 +25°C° 0 mm 3 mps 746 mmHg 51%
    12:00 +25°C° 0 mm 3 mps 745 mmHg 50%
    13:00 +26°C° 0 mm 3 mps 745 mmHg 50%
    14:00 +26°C° 0 mm 3 mps 745 mmHg 49%
    15:00 +26°C° 0 mm 3 mps 745 mmHg 53%
    16:00 +26°C° 0 mm 2 mps 744 mmHg 57%
    17:00 +25°C° 0 mm 2 mps 744 mmHg 61%
    18:00 +23°C° 0 mm 2 mps 744 mmHg 69%
    19:00 +20°C° 0 mm 2 mps 744 mmHg 77%
    20:00 +18°C° 0 mm 2 mps 744 mmHg 85%
    21:00 +18°C° 0 mm 2 mps 744 mmHg 87%
    22:00 +17°C° 0 mm 2 mps 744 mmHg 89%
    23:00 +17°C° 0 mm 2 mps 743 mmHg 91%

    19 August, Sunday

    Time Temperature Precipitation Wind Pressure Humidity
    00:00 +16°C° 0 mm 2 mps 743 mmHg 92%
    01:00 +16°C° 0 mm 2 mps 743 mmHg 93%
    02:00 +15°C° 0 mm 2 mps 743 mmHg 94%
    03:00 +15°C° 0 mm 2 mps 743 mmHg 95%
    04:00 +15°C° 0 mm 2 mps 742 mmHg 96%
    05:00 +15°C° 0 mm 2 mps 742 mmHg 96%
    06:00 +17°C° 0 mm 2 mps 742 mmHg 91%
    07:00 +18°C° 0 mm 2 mps 742 mmHg 86%
    08:00 +20°C° 0 mm 2 mps 742 mmHg 81%
    09:00 +21°C° 0.1 mm 2 mps 742 mmHg 78%
    10:00 +23°C° 0.1 mm 2 mps 742 mmHg 75%
    11:00 +24°C° 0.1 mm 3 mps 742 mmHg 72%
    12:00 +24°C° 0.4 mm 3 mps 741 mmHg 72%
    13:00 +25°C° 0.4 mm 3 mps 741 mmHg 72%
    14:00 +25°C° 0.4 mm 3 mps 741 mmHg 72%
    15:00 +24°C° 0.6 mm 3 mps 741 mmHg 76%
    16:00 +24°C° 0.6 mm 2 mps 741 mmHg 79%
    17:00 +23°C° 0.6 mm 2 mps 741 mmHg 83%
    18:00 +20°C° 0.1 mm 2 mps 741 mmHg 85%
    19:00 +19°C° 0.1 mm 2 mps 741 mmHg 87%
    20:00 +17°C° 0.1 mm 2 mps 741 mmHg 89%
    21:00 +17°C° 0 mm 2 mps 741 mmHg 91%
    22:00 +16°C° 0 mm 2 mps 741 mmHg 93%
    23:00 +16°C° 0 mm 2 mps 741 mmHg 95%
    Show more